TimeEDT,TemperatureF,Dew PointF,Humidity,Sea Level PressureIn,VisibilityMPH,Wind Direction,Wind SpeedMPH,Gust SpeedMPH,PrecipitationIn,Events,Conditions,WindDirDegrees,DateUTC
12:15 AM,78.8,73.4,83,29.87,10.0,North,3.5,-,N/A,,Clear,360,2013-09-14 04:15:00
12:35 AM,78.8,75.2,89,29.87,10.0,SSW,5.8,-,N/A,,Clear,210,2013-09-14 04:35:00
12:55 AM,78.8,75.2,89,29.87,7.0,Calm,Calm,-,N/A,,Clear,0,2013-09-14 04:55:00
1:15 AM,77.0,73.4,89,29.86,10.0,Calm,Calm,-,N/A,,Clear,0,2013-09-14 05:15:00
1:35 AM,78.8,75.2,89,29.86,10.0,Calm,Calm,-,N/A,,Clear,0,2013-09-14 05:35:00
1:55 AM,78.8,75.2,89,29.86,10.0,Calm,Calm,-,N/A,,Clear,0,2013-09-14 05:55:00
2:15 AM,78.8,73.4,83,29.85,10.0,Calm,Calm,-,N/A,,Clear,0,2013-09-14 06:15:00
2:35 AM,77.0,73.4,89,29.86,10.0,Calm,Calm,-,N/A,,Clear,0,2013-09-14 06:35:00
2:55 AM,77.0,73.4,89,29.86,7.0,Calm,Calm,-,N/A,,Mostly Cloudy,0,2013-09-14 06:55:00
3:15 AM,77.0,73.4,89,29.87,7.0,Calm,Calm,-,N/A,,Mostly Cloudy,0,2013-09-14 07:15:00
3:35 AM,77.0,73.4,89,29.86,7.0,WNW,3.5,-,N/A,,Scattered Clouds,290,2013-09-14 07:35:00
3:55 AM,77.0,73.4,89,29.86,7.0,NNW,3.5,-,N/A,,Clear,330,2013-09-14 07:55:00
4:15 AM,78.8,75.2,89,29.86,7.0,NW,4.6,-,N/A,,Clear,320,2013-09-14 08:15:00
4:35 AM,78.8,75.2,89,29.86,10.0,North,5.8,-,N/A,,Clear,350,2013-09-14 08:35:00
4:55 AM,78.8,73.4,83,29.86,10.0,North,4.6,-,N/A,,Clear,360,2013-09-14 08:55:00
5:15 AM,78.8,71.6,78,29.87,10.0,North,4.6,-,N/A,,Clear,10,2013-09-14 09:15:00
5:35 AM,78.8,71.6,78,29.87,10.0,NNE,5.8,-,N/A,,Clear,20,2013-09-14 09:35:00
5:55 AM,78.8,69.8,74,29.87,10.0,NNE,6.9,-,N/A,,Clear,30,2013-09-14 09:55:00
6:15 AM,77.0,69.8,78,29.87,10.0,NNE,3.5,-,N/A,,Clear,30,2013-09-14 10:15:00
6:35 AM,75.2,68.0,78,29.88,10.0,NNE,4.6,-,N/A,,Clear,30,2013-09-14 10:35:00
6:55 AM,73.4,68.0,83,29.88,10.0,NNE,4.6,-,N/A,,Clear,30,2013-09-14 10:55:00
7:15 AM,73.4,68.0,83,29.89,10.0,Calm,Calm,-,N/A,,Clear,0,2013-09-14 11:15:00
7:35 AM,73.4,68.0,83,29.90,10.0,NNE,3.5,-,N/A,,Clear,30,2013-09-14 11:35:00
7:55 AM,73.4,68.0,83,29.90,10.0,NNE,5.8,-,N/A,,Clear,30,2013-09-14 11:55:00
8:15 AM,73.4,68.0,83,29.92,10.0,North,3.5,-,N/A,,Clear,10,2013-09-14 12:15:00
8:35 AM,77.0,68.0,74,29.92,10.0,NNE,4.6,-,N/A,,Clear,30,2013-09-14 12:35:00
8:55 AM,77.0,66.2,69,29.93,10.0,North,3.5,-,N/A,,Clear,10,2013-09-14 12:55:00
9:15 AM,78.8,68.0,69,29.93,10.0,NNE,5.8,-,N/A,,Clear,30,2013-09-14 13:15:00
9:35 AM,78.8,68.0,69,29.94,10.0,NNE,5.8,-,N/A,,Clear,30,2013-09-14 13:35:00
9:55 AM,78.8,66.2,65,29.94,10.0,NNE,4.6,-,N/A,,Clear,30,2013-09-14 13:55:00
10:15 AM,80.6,68.0,65,29.94,10.0,NNE,6.9,-,N/A,,Clear,30,2013-09-14 14:15:00
10:35 AM,80.6,66.2,61,29.95,10.0,NNE,6.9,-,N/A,,Clear,30,2013-09-14 14:35:00
10:55 AM,80.6,66.2,61,29.95,10.0,NE,4.6,-,N/A,,Clear,50,2013-09-14 14:55:00
11:15 AM,84.2,68.0,58,29.95,10.0,NNE,6.9,-,N/A,,Clear,30,2013-09-14 15:15:00
11:35 AM,84.2,66.2,55,29.96,10.0,NNE,5.8,-,N/A,,Clear,20,2013-09-14 15:35:00
11:55 AM,86.0,66.2,51,29.95,10.0,NNE,4.6,-,N/A,,Clear,20,2013-09-14 15:55:00
12:15 PM,87.8,64.4,46,29.95,10.0,NNE,5.8,-,N/A,,Clear,20,2013-09-14 16:15:00
12:35 PM,87.8,64.4,46,29.95,10.0,NNE,3.5,-,N/A,,Clear,20,2013-09-14 16:35:00
12:55 PM,89.6,64.4,43,29.95,10.0,NE,4.6,-,N/A,,Scattered Clouds,50,2013-09-14 16:55:00
1:15 PM,89.6,64.4,43,29.95,10.0,ENE,5.8,-,N/A,,Scattered Clouds,70,2013-09-14 17:15:00
1:35 PM,89.6,64.4,43,29.95,10.0,Calm,Calm,-,N/A,,Clear,0,2013-09-14 17:35:00
1:55 PM,91.4,64.4,41,29.95,10.0,East,4.6,-,N/A,,Clear,80,2013-09-14 17:55:00
2:15 PM,89.6,64.4,43,29.94,10.0,North,4.6,-,N/A,,Clear,10,2013-09-14 18:15:00
2:35 PM,91.4,68.0,46,29.94,10.0,NW,6.9,-,N/A,,Scattered Clouds,310,2013-09-14 18:35:00
2:55 PM,91.4,68.0,46,29.93,10.0,NW,6.9,-,N/A,,Clear,320,2013-09-14 18:55:00
3:15 PM,95.0,68.0,41,29.93,10.0,North,4.6,-,N/A,,Clear,10,2013-09-14 19:15:00
3:35 PM,95.0,68.0,41,29.93,10.0,NNW,5.8,-,N/A,,Clear,340,2013-09-14 19:35:00
3:55 PM,95.0,68.0,41,29.92,10.0,NE,3.5,-,N/A,,Clear,50,2013-09-14 19:55:00
4:15 PM,95.0,69.8,44,29.92,10.0,NNW,5.8,-,N/A,,Clear,330,2013-09-14 20:15:00
4:35 PM,95.0,68.0,41,29.92,10.0,NNE,4.6,-,N/A,,Clear,30,2013-09-14 20:35:00
4:55 PM,95.0,68.0,41,29.92,10.0,NW,5.8,-,N/A,,Clear,310,2013-09-14 20:55:00
5:15 PM,93.2,68.0,44,29.92,10.0,Calm,Calm,-,N/A,,Clear,0,2013-09-14 21:15:00
5:35 PM,91.4,66.2,43,29.92,10.0,North,4.6,-,N/A,,Clear,350,2013-09-14 21:35:00
5:55 PM,91.4,68.0,46,29.92,10.0,NNW,6.9,-,N/A,,Clear,340,2013-09-14 21:55:00
6:15 PM,89.6,68.0,49,29.92,10.0,North,8.1,-,N/A,,Clear,360,2013-09-14 22:15:00
6:35 PM,89.6,64.4,43,29.93,10.0,Calm,Calm,-,N/A,,Clear,0,2013-09-14 22:35:00
6:55 PM,87.8,64.4,46,29.93,10.0,Calm,Calm,-,N/A,,Clear,0,2013-09-14 22:55:00
7:15 PM,86.0,64.4,48,29.93,10.0,Calm,Calm,-,N/A,,Clear,0,2013-09-14 23:15:00
7:35 PM,86.0,64.4,48,29.94,10.0,Calm,Calm,-,N/A,,Clear,0,2013-09-14 23:35:00
7:55 PM,84.2,64.4,51,29.94,10.0,Calm,Calm,-,N/A,,Clear,0,2013-09-14 23:55:00
8:15 PM,84.2,64.4,51,29.95,10.0,Calm,Calm,-,N/A,,Clear,0,2013-09-15 00:15:00
8:35 PM,84.2,64.4,51,29.96,10.0,Calm,Calm,-,N/A,,Clear,0,2013-09-15 00:35:00
8:55 PM,80.6,64.4,58,29.97,10.0,Calm,Calm,-,N/A,,Clear,0,2013-09-15 00:55:00
9:15 PM,80.6,62.6,54,29.98,10.0,Calm,Calm,-,N/A,,Clear,0,2013-09-15 01:15:00
9:35 PM,80.6,64.4,58,29.98,10.0,Calm,Calm,-,N/A,,Clear,0,2013-09-15 01:35:00
9:55 PM,80.6,64.4,58,30.00,10.0,Calm,Calm,-,N/A,,Scattered Clouds,0,2013-09-15 01:55:00
10:15 PM,80.6,64.4,58,30.00,10.0,Calm,Calm,-,N/A,,Scattered Clouds,0,2013-09-15 02:15:00
10:35 PM,78.8,64.4,61,30.00,10.0,Calm,Calm,-,N/A,,Clear,0,2013-09-15 02:35:00
10:55 PM,80.6,64.4,58,30.00,10.0,Calm,Calm,-,N/A,,Scattered Clouds,0,2013-09-15 02:55:00
11:15 PM,78.8,64.4,61,30.00,10.0,Calm,Calm,-,N/A,,Scattered Clouds,0,2013-09-15 03:15:00
11:35 PM,78.8,64.4,61,30.01,10.0,Calm,Calm,-,N/A,,Clear,0,2013-09-15 03:35:00
11:55 PM,78.8,64.4,61,30.01,10.0,Calm,Calm,-,N/A,,Clear,0,2013-09-15 03:55:00